SCP
0 0 0 0 0 0 0 0 0 0 0 0 0 0 0 0 0 0 0 0 0 0 0 0 0 0 0 0 0 1 1 1 1 1 1 1 1 1 1 1 1 1 1 1
0 0 0 0 0 0 0 0 0 0 0 0 0 0 0 0 0 0 0 0 0 0 0 0 0 0 0 0 0 1 1 1 1 1 1 1 1 1 1 1 1 1 1 1
0 0 0 0 0 0 0 0 0 0 0 0 0 0 0 0 0 0 0 0 0 0 0 0 0 0 0 0 0 1 1 1 1 1 1 1 1 1 0 0 1 1 1 1
0 0 0 0 0 0 0 0 0 0 0 0 0 0 0 0 0 0 0 0 0 0 0 0 0 0 0 0 0 0 1 1 1 1 1 1 1 0 0 0 0 1 1 1
0 0 0 0 0 0 0 0 0 0 0 0 0 0 0 0 0 0 0 0 0 0 0 0 0 0 0 0 0 0 1 1 1 1 1 1 1 0 0 0 0 0 0 0
0 0 0 0 0 0 0 0 0 0 0 0 0 0 0 0 0 0 0 0 0 0 0 0 0 0 0 0 0 0 1 1 1 1 1 1 1 0 0 0 0 0 0 0
0 0 0 0 0 0 0 0 0 0 0 0 0 0 0 0 0 0 0 0 0 0 0 0 0 0 0 0 0 0 1 1 1 1 1 1 1 0 0 0 0 0 0 0
0 0 0 0 0 0 0 0 0 0 0 0 0 0 0 0 0 0 0 0 0 0 0 0 0 0 0 0 0 0 0 1 1 1 0 1 1 0 0 0 0 0 0 0
0 0 0 0 0 0 0 0 0 0 0 0 0 0 0 0 0 0 0 0 0 0 0 0 0 0 0 0 0 0 0 1 1 1 1 1 1 0 0 0 0 0 0 0
0 0 0 0 0 0 0 0 0 0 0 0 0 0 0 0 0 0 0 0 0 0 0 0 0 0 0 0 0 0 0 0 1 1 1 1 1 0 0 0 0 0 0 0
0 0 0 0 0 0 0 0 0 0 0 0 0 0 0 0 0 0 0 0 0 0 0 0 0 0 0 0 0 0 0 0 0 1 1 1 1 0 0 0 0 0 0 0
0 0 0 0 0 0 0 0 0 0 0 0 0 0 0 0 0 0 0 0 0 0 0 0 0 0 0 0 0 0 0 0 0 1 1 1 1 0 0 0 0 0 0 0
0 0 0 0 0 0 0 0 0 0 0 0 0 0 0 0 0 0 0 0 0 0 0 0 0 0 0 0 0 0 0 0 0 0 0 1 1 0 0 0 0 0 0 0
0 0 0 0 0 0 0 0 0 0 0 0 0 0 0 0 0 0 0 0 0 0 0 0 0 0 0 0 0 0 0 0 0 0 0 0 0 0 0 0 0 0 0 0
0 0 0 0 0 0 0 0 0 0 0 0 0 0 0 0 0 0 0 0 0 0 0 0 0 0 0 0 0 0 0 0 0 0 0 0 0 0 0 0 0 0 0 0
0 0 0 0 0 0 0 0 0 0 0 0 0 0 0 0 0 0 0 0 0 0 0 0 0 0 0 0 0 0 0 0 0 0 0 0 0 0 0 0 0 0 0 0
0 0 0 0 0 0 0 0 0 0 0 0 0 0 0 0 0 0 0 0 0 0 0 0 0 0 0 0 0 0 0 0 0 0 0 0 0 0 0 0 0 0 0 0
0 0 0 0 0 0 0 0 0 0 0 0 0 0 0 0 0 0 0 0 0 0 0 0 0 0 0 0 0 0 0 0 0 0 0 0 0 0 0 0 0 0 0 0
0 0 0 0 0 0 0 0 0 0 0 0 0 0 0 0 0 0 0 0 0 0 0 0 0 0 0 0 0 0 0 0 0 0 0 0 0 0 0 0 0 0 0 0
0 0 0 0 0 0 0 0 0 0 0 0 0 0 0 0 0 0 0 0 0 0 0 0 0 0 0 0 0 0 0 0 0 0 0 0 0 0 0 0 0 0 0 0
0 0 0 0 0 0 0 0 0 0 0 0 0 0 0 0 0 0 0 0 0 0 0 0 0 0 0 0 0 0 0 0 0 0 0 0 0 0 0 0 0 0 0 0
0 0 0 0 0 0 0 0 0 0 0 0 0 0 0 0 0 0 0 0 0 0 0 0 0 0 0 0 0 0 0 0 0 0 0 0 0 0 0 0 0 0 0 0
0 0 0 0 0 0 0 0 0 0 0 0 0 0 0 0 0 0 0 0 0 0 0 0 0 0 0 0 0 0 0 0 0 0 0 0 0 0 0 0 0 0 0 0
0 0 0 0 0 0 0 0 0 0 0 0 0 0 0 0 0 0 0 0 0 0 0 0 0 0 0 0 0 0 0 0 0 0 0 0 0 0 0 0 0 0 0 0
0 0 0 0 0 0 0 0 0 0 0 0 0 0 0 0 0 0 0 0 0 0 0 0 0 0 0 0 0 0 0 0 0 0 0 0 0 0 0 0 0 0 0 0
0 0 0 0 0 0 0 0 0 0 0 0 0 0 0 0 0 0 0 0 0 0 0 0 0 0 0 0 0 0 0 0 0 0 0 0 0 0 0 0 0 0 0 0
Wind_Speed
2 3 4 5 6 4 4 6 8 6 3 6 12 15 14 10 9 11 10 9 9 8 6 5 4 4 3 3 4 5 5 5 4 3 3 2 2 2 2 2 2 2 3 3
3 5 5 3 4 4 5 7 8 5 2 6 11 16 13 10 10 10 11 10 9 7 5 4 4 4 4 4 4 4 5 5 5 4 3 2 2 2 2 2 2 2 3 3
7 2 4 5 4 5 7 8 7 7 6 5 9 12 8 6 7 8 8 8 8 7 6 6 5 5 5 5 5 4 5 5 5 4 3 2 2 1 2 2 2 3 3 3
5 3 4 5 6 6 7 4 6 6 7 5 4 10 7 5 6 6 7 6 6 6 6 5 5 5 5 5 5 5 5 5 5 5 5 5 4 3 3 3 2 3 3 3
4 4 5 7 5 6 3 1 4 5 6 7 6 8 8 2 6 6 5 5 6 5 5 5 5 5 5 5 4 5 5 5 5 5 5 6 5 3 2 2 3 3 3 3
3 2 4 3 1 3 2 0 0 1 3 8 6 8 9 4 5 4 4 4 4 4 4 4 3 3 3 3 3 4 4 4 5 5 5 6 6 4 4 4 4 3 2 3
3 4 3 2 3 4 3 2 2 3 4 7 2 8 11 4 3 4 5 5 4 3 3 3 2 2 2 3 3 4 5 5 5 5 6 6 6 5 6 5 5 4 3 3
5 5 6 5 5 5 6 6 4 5 6 5 3 10 7 2 3 4 4 4 4 3 3 3 3 3 3 3 4 5 5 5 5 6 6 5 5 4 4 5 4 5 4 3
6 5 3 3 2 5 6 6 3 2 2 6 8 8 8 4 4 3 3 3 3 3 3 3 3 3 3 3 4 5 5 5 5 6 6 5 5 5 4 4 4 4 3 3
5 4 3 2 3 2 3 5 4 5 5 8 8 8 6 3 4 3 3 3 4 3 3 3 3 3 3 3 3 4 5 5 5 5 5 4 5 5 4 4 4 4 4 3
5 5 3 4 8 9 7 6 6 5 4 6 8 7 3 4 3 3 3 4 4 4 4 3 3 3 3 3 3 3 4 4 4 4 4 4 5 4 4 4 4 4 3 4
6 4 4 6 2 2 7 8 9 6 6 6 7 9 1 2 2 2 4 4 4 4 4 3 3 3 3 3 3 3 4 4 4 4 4 4 4 4 4 4 4 4 4 4
7 5 3 3 4 4 6 7 8 5 3 7 9 10 1 0 2 3 4 4 4 3 3 3 3 3 3 3 3 4 4 4 4 4 4 4 4 4 4 4 4 4 4 3
6 6 9 11 6 6 8 10 10 9 8 10 15 16 10 7 7 6 5 5 4 3 3 4 4 4 3 4 4 4 4 4 4 4 4 4 4 4 4 3 3 3 4 4
4 6 6 8 7 6 10 13 15 17 16 14 16 17 17 12 9 8 6 5 5 4 4 4 4 4 4 4 4 4 4 3 3 4 4 5 4 4 3 3 3 3 3 4
3 4 3 5 5 6 10 14 16 19 18 20 19 21 14 10 8 8 7 5 6 5 5 5 5 4 4 4 4 4 4 3 3 4 5 4 4 3 3 3 3 3 3 3
5 4 5 6 1 3 12 15 16 14 15 15 19 17 7 8 8 9 7 6 6 6 6 6 5 5 4 4 4 4 4 3 4 4 4 4 3 3 3 3 3 4 4 4
7 6 3 3 2 13 9 4 11 15 15 16 15 12 10 10 9 7 7 7 7 6 6 5 5 5 4 4 3 3 2 3 3 3 4 4 3 3 3 3 4 4 4 4
8 7 5 5 8 13 9 7 9 10 13 13 16 14 11 5 5 7 6 6 6 6 5 4 4 4 4 3 3 2 2 2 2 3 3 3 3 4 4 4 4 4 4 4
5 7 6 6 8 11 8 3 5 5 11 8 11 12 9 4 6 6 2 3 4 4 3 3 3 3 3 3 2 2 2 2 3 3 3 3 3 4 4 4 4 3 3 3
7 7 10 10 11 12 6 4 8 8 8 4 8 9 7 8 8 3 1 3 3 3 3 2 2 3 3 2 2 2 3 3 3 3 2 3 3 4 4 3 3 3 3 2
12 10 10 9 10 13 6 9 11 7 1 2 4 5 6 7 6 4 3 3 3 3 3 2 2 2 2 2 2 3 3 3 2 2 2 2 3 3 2 2 2 2 3 3
11 11 8 12 11 4 8 9 6 2 3 4 4 5 5 6 6 6 5 4 4 4 3 3 2 2 2 2 2 3 3 2 2 2 2 2 1 1 2 2 2 2 2 2
7 4 5 8 11 9 8 7 6 5 6 5 4 5 5 6 6 6 5 5 4 4 3 3 2 2 3 2 2 3 2 1 1 2 2 1 1 1 1 2 2 3 3 3
7 8 7 10 9 6 8 9 9 7 6 5 5 5 5 6 6 6 5 5 4 4 3 3 3 3 3 3 3 2 1 1 1 2 2 2 2 2 1 1 2 3 3 4
8 10 11 11 8 8 8 6 7 7 8 7 6 6 5 6 7 6 5 4 4 3 3 3 3 3 3 2 3 2 1 1 2 2 2 1 2 1 2 1 1 2 3 4
Wind_Direction
136 184 205 211 219 250 233 246 265 274 298 271 266 273 272 266 252 252 251 250 251 252 252 246 241 232 229 225 221 219 212 200 189 182 187 192 195 194 194 194 197 189 183 180
168 217 220 206 198 210 227 255 271 285 290 281 285 280 272 257 246 246 250 252 254 255 255 244 233 224 224 222 219 216 213 206 201 199 196 204 200 199 202 195 197 196 193 190
206 194 175 175 191 218 238 248 267 286 307 266 292 277 251 242 243 250 255 255 256 252 249 244 236 228 225 224 223 221 215 209 205 196 177 161 177 177 195 199 199 201 194 191
225 204 182 201 214 219 247 247 260 274 285 282 293 289 271 253 259 253 256 254 258 253 248 246 241 237 230 227 222 221 215 208 202 195 191 184 194 204 211 211 209 201 198 197
211 186 197 213 216 210 246 303 261 267 264 273 241 259 273 249 267 269 263 263 264 261 254 248 242 240 237 227 218 214 212 207 201 201 203 199 206 211 202 204 208 206 201 200
233 202 221 223 205 191 147 123 230 205 235 256 233 240 272 239 258 282 278 283 287 278 268 261 254 246 238 229 218 211 208 210 207 204 206 211 210 205 202 206 208 210 208 203
236 209 188 170 158 161 187 198 261 246 235 250 178 241 259 262 264 276 288 294 304 292 275 271 265 258 251 238 223 212 209 212 212 208 210 216 219 213 214 214 213 210 211 213
215 230 191 188 198 194 201 205 218 251 263 277 225 244 258 264 291 292 295 302 313 308 288 274 263 255 250 243 231 220 217 219 216 213 215 219 222 218 220 219 220 218 218 219
211 231 146 178 198 189 185 208 229 238 289 273 254 262 278 256 280 299 315 323 316 310 299 280 269 258 253 246 240 230 226 227 225 222 217 217 220 221 223 220 221 223 221 213
192 230 205 158 166 207 228 169 169 204 241 260 268 261 256 245 263 283 302 300 304 313 306 290 275 269 262 256 248 235 231 232 231 225 220 219 220 223 222 217 219 222 217 209
187 197 203 191 202 196 177 188 201 207 235 248 269 265 227 230 239 253 268 293 308 307 300 292 286 279 272 269 257 238 230 233 233 230 225 222 221 220 218 217 218 217 212 208
183 191 224 227 204 247 215 208 194 211 224 230 260 270 107 225 253 278 295 304 308 305 301 298 294 286 272 264 260 250 238 234 233 232 222 220 219 218 217 220 220 215 211 209
162 174 214 222 196 193 215 212 211 218 223 223 237 259 102 256 269 275 290 296 300 302 303 297 287 278 270 265 259 253 244 236 236 231 223 221 221 219 223 224 221 216 213 210
170 199 214 233 242 193 217 214 206 205 226 237 239 258 272 276 281 292 292 288 290 288 297 295 287 279 272 270 265 258 252 242 237 231 227 225 229 228 230 228 224 221 215 212
189 224 231 258 265 234 235 229 214 217 227 237 251 256 264 272 280 284 284 284 282 279 290 295 291 284 279 277 272 267 260 249 236 230 231 230 232 230 229 231 230 228 221 221
197 222 215 253 246 244 254 243 229 230 234 242 257 263 266 272 273 271 273 266 267 276 287 292 290 284 278 274 272 270 265 253 237 232 236 234 228 225 225 229 230 232 233 230
183 183 213 243 249 273 252 228 215 220 223 227 241 252 255 257 256 259 262 255 259 270 278 281 279 275 271 267 265 262 264 253 238 236 236 232 227 228 232 230 227 229 231 232
180 179 212 243 211 239 246 195 211 225 235 230 243 257 258 259 267 267 255 248 259 266 265 267 273 277 275 274 272 271 269 251 240 242 240 229 220 222 227 227 227 230 231 232
198 186 199 210 243 261 266 216 198 215 248 231 236 250 261 272 286 266 245 242 256 263 265 264 269 273 276 273 272 266 266 262 249 250 255 240 222 222 223 227 230 231 231 234
192 193 201 205 229 246 253 174 177 190 254 226 219 237 244 223 254 264 240 246 260 269 268 272 281 278 272 277 271 254 257 265 263 263 262 257 232 225 227 229 229 230 228 232
175 193 209 218 235 256 256 156 158 201 248 197 208 228 225 222 242 276 256 259 256 262 267 272 273 270 272 273 257 256 260 266 278 278 268 258 236 229 232 233 226 220 220 220
184 187 199 200 223 244 175 159 197 231 265 212 218 223 228 242 257 256 254 259 262 267 275 274 275 282 291 269 248 261 270 287 301 291 270 258 239 231 223 220 219 212 206 204
207 202 197 202 224 248 170 202 228 253 242 244 237 237 229 241 249 247 249 251 253 256 261 260 257 275 296 284 253 261 283 304 305 304 286 273 249 233 212 202 201 199 200 204
222 209 212 237 248 248 239 246 251 245 245 249 251 250 232 237 241 244 247 247 247 250 252 250 239 258 280 290 284 278 295 307 300 288 287 262 223 219 207 206 201 200 201 205
214 185 210 241 257 272 254 240 243 243 247 251 251 243 238 239 243 244 248 247 246 247 250 240 237 251 271 288 293 296 285 265 265 271 272 237 215 210 215 222 220 220 220 215
206 199 208 236 226 225 249 238 234 234 240 243 246 254 246 234 240 242 247 249 247 246 241 237 246 253 268 283 292 300 287 243 240 250 261 233 213 209 211 217 260 274 263 265